Wind_Speed
13 13 13 13 14 14 14 13 13 13 13 13 13 13 13 13 13 13 14 13 13 13 13 12 12 11 11 11 11 12 12 12 12 11 12 12 12 12 12 12 12 12 12
13 13 12 13 13 14 14 14 13 13 13 13 13 13 13 13 13 13 13 13 13 13 12 11 11 11 12 12 12 12 12 12 12 12 13 13 12 12 12 12 12 12 12
12 13 13 13 14 13 13 13 13 13 13 13 13 12 13 13 12 12 12 11 12 12 12 11 11 11 12 12 12 12 12 12 13 12 12 12 12 12 12 12 12 13 13
13 13 13 14 14 14 14 14 14 13 13 13 12 13 12 12 12 11 11 11 12 11 11 10 11 11 11 11 12 12 12 12 12 11 11 11 11 11 12 12 13 13 14
13 14 14 15 15 15 15 15 15 14 14 14 14 13 13 13 13 12 12 12 12 11 11 11 11 11 11 11 11 12 12 12 12 11 11 11 11 12 12 13 13 14 14
14 14 15 15 15 15 15 15 15 15 15 14 14 14 13 13 12 12 12 12 11 10 10 10 11 11 11 12 12 12 12 12 12 12 11 11 12 12 13 13 14 14 14
14 15 15 15 15 15 15 16 16 16 16 15 15 15 14 14 13 13 12 12 11 11 11 11 11 11 12 12 13 14 13 13 12 12 12 12 12 13 13 13 13 13 13
14 15 15 16 16 16 16 16 17 16 15 15 15 15 14 14 14 13 12 12 12 12 12 12 12 13 13 14 14 14 14 13 12 12 12 13 13 13 13 13 13 13 14
14 15 16 16 16 16 16 17 17 17 16 16 16 15 15 14 14 13 13 13 14 14 14 14 14 14 15 15 14 15 15 13 13 13 13 13 13 13 13 13 14 13 13
15 16 16 16 16 17 17 17 16 16 16 16 16 16 15 15 14 14 14 15 14 14 15 16 16 16 16 16 15 15 14 14 14 14 14 14 14 14 14 14 15 14 14
15 16 17 17 17 17 17 18 17 17 17 17 17 16 16 15 15 14 15 15 15 15 16 16 17 16 16 16 16 15 15 15 15 15 15 15 15 15 14 14 15 14 14
17 17 17 17 17 17 17 18 18 17 17 17 17 16 16 16 15 15 16 16 17 17 16 16 17 17 17 16 16 16 16 16 16 16 16 16 16 16 16 15 15 15 15
18 18 18 18 18 18 18 18 17 17 17 16 16 16 17 17 17 17 17 18 18 18 17 17 18 18 18 18 17 17 17 17 17 17 17 17 17 17 16 16 16 16 16
19 19 19 19 18 18 18 18 17 17 17 17 17 17 17 18 18 18 18 18 18 18 19 19 19 19 19 19 18 18 18 18 18 18 18 17 17 17 17 17 17 16 16
20 20 19 19 19 19 19 19 18 17 17 17 17 18 19 19 19 19 19 20 20 20 20 19 19 19 19 19 19 19 19 19 18 18 18 18 18 18 17 17 17 17 17
21 21 20 20 20 20 20 19 19 19 19 19 19 19 20 20 20 20 20 20 20 20 20 20 20 20 19 19 19 19 19 19 19 19 19 19 19 19 18 18 17 17 17
21 21 21 21 21 21 20 20 20 20 20 20 20 20 21 21 21 21 21 21 21 21 21 20 20 20 20 19 19 19 19 19 19 19 19 19 19 19 19 19 19 18 18
20 21 21 21 22 22 21 21 21 20 20 20 20 20 21 21 21 21 21 21 21 21 21 20 20 20 20 20 20 19 19 19 20 20 20 20 20 20 20 19 19 19 19
22 22 22 22 22 22 22 21 21 21 21 21 21 20 20 21 21 20 20 20 20 21 21 20 20 20 20 20 20 21 21 21 21 20 20 20 20 20 20 19 19 19 19
22 22 22 22 22 22 22 22 21 22 22 22 22 22 21 21 21 21 20 20 20 21 21 21 21 21 20 20 20 20 20 20 20 21 21 21 21 21 21 20 19 20 20
23 23 23 22 22 22 22 22 22 22 22 22 22 22 22 21 21 21 20 21 21 21 21 22 22 21 21 20 21 21 21 21 21 21 21 21 21 21 20 20 20 20 20
23 23 22 22 22 22 22 22 22 22 22 22 22 22 21 21 21 21 21 21 22 22 22 22 22 21 21 21 21 21 21 21 21 21 21 20 20 20 21 21 22 21 21
22 22 22 21 21 22 22 22 23 23 22 22 22 22 22 22 22 22 22 22 22 23 23 22 22 22 22 22 22 22 22 22 22 22 21 21 21 21 21 21 22 23 23
22 21 22 22 22 22 22 23 24 24 24 23 23 23 22 22 23 23 24 23 23 24 23 23 23 23 23 23 23 23 23 23 23 24 24 24 24 24 24 23 23 24 24
22 23 23 23 23 23 23 24 24 25 25 26 25 25 24 24 24 24 24 24 24 24 24 24 24 24 24 24 24 24 24 24 24 25 25 25 25 25 25 26 25 25 25
23 23 24 24 25 25 25 25 25 25 26 27 27 27 26 26 26 26 26 26 25 25 25 25 25 25 26 25 25 26 25 25 25 25 25 25 25 25 25 26 26 26 26
Wind_Direction
263 266 268 268 268 270 271 270 272 274 276 275 274 273 271 271 272 273 273 270 270 274 277 275 275 268 267 269 272 272 273 278 279 280 280 280 279 276 274 273 272 274 276
261 264 267 267 268 271 272 271 272 271 274 275 274 274 270 270 272 273 272 270 270 270 272 272 275 271 267 267 271 274 276 280 280 281 279 278 278 276 274 274 275 276 275
263 267 268 268 268 270 272 272 273 270 269 270 271 274 273 276 276 272 268 269 272 271 272 274 275 273 267 269 272 275 277 279 281 282 280 278 276 278 278 277 277 278 276
266 268 268 269 270 270 270 269 269 268 268 268 267 270 274 274 274 272 270 272 272 270 269 270 273 273 269 270 274 277 279 281 281 281 282 281 279 280 278 277 278 279 278
269 269 269 269 270 269 270 270 269 270 270 270 270 269 269 268 270 269 267 270 273 271 268 268 273 274 273 272 275 278 279 281 282 281 282 284 280 279 278 278 279 279 279
269 268 269 269 268 267 269 270 271 269 269 270 271 271 269 269 268 267 267 270 273 274 272 271 274 276 276 272 272 273 277 280 280 282 282 282 281 281 281 281 280 280 279
270 269 269 269 268 268 269 271 271 268 268 271 272 272 270 270 268 267 268 269 272 275 275 271 275 278 279 277 275 275 278 282 282 282 282 283 282 283 281 280 282 282 280
269 269 269 268 269 268 270 271 271 270 269 270 272 272 269 269 268 267 269 270 273 277 275 277 279 280 279 279 277 276 277 280 282 285 284 284 285 284 280 280 283 281 280
270 269 269 268 268 267 267 269 270 270 271 272 270 269 266 266 265 264 266 268 272 275 275 276 279 282 278 276 279 278 275 275 278 283 285 284 287 285 284 285 284 282 280
274 273 272 271 271 269 266 267 267 269 270 270 269 267 266 264 262 263 265 266 268 270 272 275 277 278 279 276 278 280 276 275 275 277 281 282 285 288 287 287 285 282 281
276 274 272 271 272 271 269 268 267 268 270 268 268 269 268 265 265 266 266 266 266 268 271 272 273 276 279 277 276 277 277 277 276 274 278 279 283 285 287 288 287 285 283
276 275 273 272 272 272 271 269 268 268 268 267 268 268 268 266 266 267 267 267 269 268 270 271 273 275 276 276 274 274 274 277 279 279 278 278 280 282 281 284 286 286 287
277 276 273 271 272 271 271 269 269 267 266 266 265 266 267 267 268 268 267 268 269 270 271 272 273 275 275 275 274 273 273 275 276 277 276 276 276 279 279 280 281 282 285
276 276 274 271 272 271 271 270 269 266 266 266 265 267 269 268 270 269 267 268 267 269 271 271 273 274 274 273 273 274 273 273 274 274 274 275 276 278 278 278 280 279 281
273 274 273 271 271 271 271 271 270 268 267 268 269 269 269 269 270 269 269 270 270 271 272 274 274 275 273 272 272 272 272 274 274 274 275 274 275 276 278 277 279 279 279
272 272 271 270 270 269 270 270 270 268 268 267 269 271 271 270 270 270 270 270 271 271 272 274 274 275 272 272 273 272 273 273 273 273 272 273 274 274 274 275 277 278 279
271 271 271 270 269 269 269 269 269 269 267 268 269 272 273 272 271 271 270 269 270 271 272 272 272 272 271 271 272 272 271 272 271 271 271 271 272 273 273 273 275 277 278
271 271 271 271 270 269 268 268 268 268 268 270 271 274 273 272 271 270 269 267 268 269 271 271 270 271 273 272 270 269 270 271 270 270 271 271 272 271 273 272 274 277 277
273 272 271 270 269 268 268 268 268 267 268 270 271 273 273 272 271 270 270 270 269 269 271 273 272 272 273 271 269 269 269 269 269 270 271 272 272 270 270 271 273 275 277
274 273 271 269 266 266 265 266 266 267 269 269 270 271 272 272 271 269 269 270 270 270 270 271 271 272 272 270 269 270 270 270 270 271 271 271 271 270 269 270 272 274 275
273 272 271 269 266 265 264 265 265 266 267 268 270 271 271 271 271 270 270 270 270 270 270 270 271 271 271 270 268 269 270 270 271 272 272 271 271 269 269 270 272 274 274
271 270 268 265 264 265 264 265 266 266 267 269 270 270 270 270 271 271 271 270 270 269 269 269 270 271 271 271 271 271 270 271 271 272 272 272 271 270 271 272 272 274 275
270 268 266 265 263 264 263 264 264 266 267 269 270 271 271 271 273 272 272 271 269 269 269 269 269 271 272 272 272 272 272 271 270 271 271 272 272 272 272 272 272 273 275
270 268 266 265 263 263 264 264 265 267 267 268 269 270 270 271 272 272 272 271 270 269 269 269 269 271 271 271 271 271 271 271 270 270 272 273 273 273 272 270 271 273 274
271 269 267 264 263 263 265 266 266 266 267 269 269 268 268 269 270 270 271 270 268 269 269 269 269 270 271 271 271 271 271 270 271 271 272 273 274 274 273 271 271 272 273
273 271 268 266 264 264 266 267 268 268 268 268 268 268 268 269 269 270 269 268 267 267 269 270 271 272 271 270 271 271 269 270 271 271 272 272 272 272 273 273 273 273 273
Height
5870 5870 5870 5869 5869 5869 5868 5868 5868 5868 5867 5867 5867 5866 5866 5865 5865 5865 5864 5864 5863 5863 5862 5862 5861 5861 5860 5860 5860 5859 5859 5858 5858 5857 5856 5856 5855 5854 5854 5853 5852 5852 5851
5867 5867 5867 5866 5866 5866 5865 5865 5864 5864 5864 5864 5864 5863 5863 5862 5862 5861 5861 5860 5860 5860 5859 5859 5858 5858 5857 5857 5857 5857 5856 5855 5855 5854 5854 5853 5853 5851 5850 5850 5849 5849 5848
5864 5864 5863 5863 5863 5862 5862 5861 5861 5861 5861 5860 5860 5860 5859 5859 5859 5858 5857 5857 5857 5856 5856 5856 5855 5855 5854 5854 5854 5854 5853 5852 5851 5851 5850 5850 5849 5848 5848 5847 5846 5846 5845
5860 5860 5860 5860 5859 5859 5859 5858 5858 5857 5857 5857 5857 5857 5856 5856 5855 5855 5854 5854 5853 5853 5852 5852 5852 5852 5852 5851 5851 5850 5850 5849 5848 5848 5847 5847 5846 5845 5845 5844 5843 5843 5842
5857 5857 5856 5856 5856 5855 5855 5855 5855 5854 5854 5853 5853 5853 5853 5853 5852 5851 5851 5850 5850 5849 5849 5849 5849 5849 5849 5848 5848 5847 5846 5846 5845 5845 5844 5843 5843 5842 5842 5841 5840 5839 5838
5853 5853 5852 5852 5852 5851 5851 5851 5851 5850 5850 5850 5849 5849 5849 5849 5849 5848 5848 5847 5847 5847 5846 5846 5846 5846 5845 5845 5844 5844 5843 5843 5842 5842 5841 5840 5839 5839 5838 5838 5837 5836 5835
5849 5849 5848 5848 5848 5848 5847 5847 5847 5846 5846 5846 5846 5845 5845 5845 5845 5845 5845 5844 5844 5844 5844 5844 5843 5843 5842 5842 5841 5841 5840 5840 5839 5838 5838 5837 5836 5835 5835 5834 5833 5832 5831
5845 5845 5844 5844 5844 5844 5844 5843 5843 5842 5842 5842 5842 5841 5841 5842 5842 5841 5841 5841 5841 5841 5841 5840 5840 5840 5839 5838 5838 5837 5837 5836 5836 5835 5834 5834 5833 5832 5831 5831 5830 5829 5828
5841 5840 5840 5840 5840 5839 5839 5839 5838 5838 5838 5838 5838 5838 5838 5838 5838 5838 5838 5838 5838 5838 5837 5837 5837 5836 5836 5835 5834 5834 5833 5833 5832 5832 5831 5830 5830 5829 5828 5827 5826 5825 5824
5837 5836 5836 5835 5835 5835 5835 5834 5834 5834 5833 5833 5833 5833 5833 5834 5834 5834 5834 5834 5834 5834 5834 5833 5833 5832 5832 5831 5831 5830 5829 5829 5828 5828 5827 5827 5826 5825 5824 5823 5822 5821 5820
5833 5832 5831 5831 5830 5830 5830 5830 5830 5829 5829 5829 5829 5829 5829 5829 5829 5830 5830 5830 5830 5830 5830 5829 5829 5828 5827 5827 5826 5826 5825 5825 5824 5824 5823 5823 5822 5821 5820 5819 5818 5817 5816
5828 5827 5827 5826 5826 5825 5825 5825 5825 5825 5825 5825 5825 5825 5825 5825 5825 5825 5825 5825 5825 5825 5825 5824 5824 5823 5823 5822 5822 5821 5821 5820 5820 5819 5819 5818 5818 5817 5816 5815 5814 5813 5812
5824 5823 5822 5822 5821 5821 5820 5820 5820 5820 5820 5820 5820 5820 5820 5820 5820 5820 5820 5820 5820 5820 5820 5820 5819 5819 5818 5817 5817 5816 5816 5816 5815 5815 5814 5814 5813 5812 5812 5811 5810 5809 5808
5819 5818 5817 5816 5816 5816 5816 5816 5815 5815 5815 5815 5815 5815 5815 5815 5815 5815 5815 5815 5815 5815 5815 5814 5814 5814 5813 5812 5812 5812 5811 5811 5810 5810 5809 5809 5808 5808 5807 5806 5805 5804 5803
5813 5812 5812 5811 5811 5811 5810 5810 5810 5810 5810 5810 5810 5810 5810 5810 5810 5810 5810 5810 5810 5810 5809 5809 5809 5808 5808 5807 5807 5807 5806 5806 5805 5804 5804 5804 5803 5802 5802 5801 5800 5800 5799
5806 5806 5805 5805 5805 5805 5805 5805 5805 5805 5805 5805 5805 5804 5804 5804 5804 5804 5804 5804 5804 5804 5803 5803 5803 5802 5802 5802 5801 5801 5800 5800 5800 5799 5799 5798 5798 5797 5797 5796 5795 5795 5794
5800 5799 5799 5799 5799 5799 5799 5799 5799 5799 5799 5799 5799 5799 5798 5798 5798 5798 5798 5798 5798 5798 5797 5797 5797 5796 5796 5796 5795 5795 5795 5794 5794 5793 5793 5793 5792 5792 5791 5791 5790 5790 5789
5793 5792 5792 5792 5792 5792 5792 5792 5793 5793 5793 5793 5793 5793 5792 5792 5792 5792 5792 5792 5792 5791 5791 5791 5791 5790 5790 5790 5789 5789 5788 5788 5788 5787 5787 5787 5787 5786 5786 5785 5785 5784 5783
5786 5785 5785 5785 5785 5785 5785 5786 5786 5786 5787 5787 5787 5787 5786 5786 5786 5786 5786 5785 5785 5785 5785 5785 5784 5784 5784 5784 5783 5783 5782 5782 5782 5782 5781 5781 5781 5780 5780 5779 5779 5778 5778
5778 5778 5778 5777 5778 5778 5778 5779 5779 5780 5780 5780 5780 5780 5780 5780 5779 5779 5779 5779 5779 5779 5779 5779 5778 5778 5778 5777 5777 5776 5776 5776 5776 5775 5775 5775 5774 5774 5773 5773 5773 5773 5772
5771 5770 5770 5770 5770 5771 5771 5772 5772 5773 5773 5773 5773 5773 5773 5773 5773 5773 5773 5773 5772 5772 5772 5772 5772 5771 5771 5771 5770 5770 5770 5770 5769 5769 5768 5768 5768 5767 5767 5767 5767 5766 5766
5764 5763 5762 5762 5763 5763 5764 5765 5765 5766 5766 5766 5766 5766 5766 5766 5766 5766 5766 5766 5766 5765 5765 5765 5765 5765 5764 5764 5764 5763 5763 5763 5763 5762 5762 5762 5761 5761 5760 5760 5760 5759 5759
5756 5756 5756 5756 5756 5757 5757 5758 5758 5759 5759 5760 5760 5759 5759 5759 5759 5759 5759 5758 5758 5758 5758 5758 5758 5758 5758 5757 5757 5756 5756 5756 5755 5755 5755 5755 5754 5754 5753 5753 5753 5752 5751
5749 5749 5749 5749 5750 5750 5750 5751 5751 5752 5752 5752 5752 5752 5752 5752 5751 5751 5751 5751 5751 5751 5751 5751 5751 5750 5750 5750 5749 5749 5748 5748 5748 5748 5748 5747 5747 5746 5746 5746 5745 5745 5744
5743 5742 5742 5742 5743 5743 5743 5744 5744 5744 5744 5744 5744 5744 5744 5744 5744 5743 5743 5743 5743 5743 5743 5743 5743 5742 5742 5742 5741 5741 5741 5740 5740 5739 5739 5739 5739 5738 5738 5737 5737 5737 5736
5735 5735 5735 5735 5735 5735 5736 5736 5735 5735 5735 5735 5735 5735 5735 5735 5735 5735 5735 5734 5734 5734 5734 5734 5734 5733 5733 5733 5733 5732 5732 5732 5731 5731 5731 5731 5730 5730 5729 5729 5728 5728 5727